• In Moldova, Republic
  • List of Countries
  • For 7 days
  • Water Temperature
  • Satellite Maps
  • Weather Map
  • Weather Widgets
  • user-avatar
    Login

    Hourly Weather Jewłach

    Today, 29 May, Monday

    Time Temperature Precipitation Wind Pressure Humidity
    00:00 +19°C° 0.1 mm 2 mps 761 mmHg 77%
    01:00 +19°C° 0 mm 1 mps 762 mmHg 78%
    02:00 +19°C° 0 mm 1 mps 762 mmHg 80%
    03:00 +18°C° 0 mm 1 mps 762 mmHg 74%
    04:00 +18°C° 0 mm 0 mps 762 mmHg 69%
    05:00 +19°C° 0 mm 0 mps 762 mmHg 65%
    06:00 +20°C° 0 mm 0 mps 762 mmHg 61%
    07:00 +24°C° 0 mm 1 mps 762 mmHg 56%
    08:00 +25°C° 0 mm 1 mps 762 mmHg 50%
    09:00 +27°C° 0 mm 1 mps 762 mmHg 45%
    10:00 +28°C° 0 mm 2 mps 762 mmHg 42%
    11:00 +29°C° 0 mm 2 mps 762 mmHg 40%
    12:00 +30°C° 0 mm 2 mps 762 mmHg 37%
    13:00 +31°C° 0 mm 3 mps 762 mmHg 36%
    14:00 +31°C° 0 mm 3 mps 762 mmHg 36%
    15:00 +33°C° 0 mm 4 mps 761 mmHg 36%
    16:00 +32°C° 0 mm 4 mps 762 mmHg 38%
    17:00 +30°C° 0 mm 5 mps 762 mmHg 41%
    18:00 +29°C° 0 mm 5 mps 762 mmHg 43%
    19:00 +27°C° 0 mm 5 mps 763 mmHg 48%
    20:00 +25°C° 0 mm 5 mps 763 mmHg 53%
    21:00 +22°C° 0 mm 4 mps 764 mmHg 58%
    22:00 +21°C° 0 mm 4 mps 764 mmHg 61%
    23:00 +20°C° 0 mm 3 mps 764 mmHg 64%

    Tomorrow, 30 May, Tuesday

    Time Temperature Precipitation Wind Pressure Humidity
    00:00 +19°C° 0 mm 2 mps 764 mmHg 67%
    01:00 +19°C° 0 mm 2 mps 763 mmHg 69%
    02:00 +18°C° 0 mm 2 mps 763 mmHg 71%
    03:00 +19°C° 0 mm 1 mps 763 mmHg 73%
    04:00 +20°C° 0 mm 1 mps 763 mmHg 70%
    05:00 +20°C° 0 mm 1 mps 763 mmHg 67%
    06:00 +21°C° 0 mm 1 mps 762 mmHg 64%
    07:00 +23°C° 0 mm 1 mps 762 mmHg 58%
    08:00 +25°C° 0 mm 1 mps 761 mmHg 52%
    09:00 +26°C° 0 mm 1 mps 761 mmHg 47%
    10:00 +28°C° 0 mm 1 mps 760 mmHg 43%
    11:00 +29°C° 0 mm 1 mps 760 mmHg 39%
    12:00 +31°C° 0 mm 1 mps 759 mmHg 35%
    13:00 +31°C° 0 mm 1 mps 759 mmHg 33%
    14:00 +32°C° 0 mm 1 mps 758 mmHg 31%
    15:00 +34°C° 0 mm 2 mps 758 mmHg 30%
    16:00 +32°C° 0 mm 1 mps 757 mmHg 31%
    17:00 +32°C° 0 mm 1 mps 757 mmHg 33%
    18:00 +31°C° 0 mm 1 mps 757 mmHg 35%
    19:00 +29°C° 0 mm 1 mps 758 mmHg 40%
    20:00 +27°C° 0 mm 1 mps 758 mmHg 45%
    21:00 +24°C° 0 mm 1 mps 758 mmHg 50%
    22:00 +24°C° 0 mm 1 mps 758 mmHg 49%
    23:00 +23°C° 0 mm 2 mps 758 mmHg 48%

    Day after tomorrow, 31 May, Wednesday

    Time Temperature Precipitation Wind Pressure Humidity
    00:00 +23°C° 0 mm 2 mps 758 mmHg 46%
    01:00 +22°C° 0 mm 1 mps 758 mmHg 48%
    02:00 +22°C° 0 mm 1 mps 758 mmHg 49%
    03:00 +21°C° 0 mm 1 mps 758 mmHg 50%
    04:00 +22°C° 0 mm 1 mps 758 mmHg 48%
    05:00 +24°C° 0 mm 1 mps 758 mmHg 45%
    06:00 +25°C° 0 mm 2 mps 758 mmHg 43%
    07:00 +27°C° 0 mm 2 mps 758 mmHg 36%
    08:00 +29°C° 0 mm 2 mps 758 mmHg 30%
    09:00 +31°C° 0 mm 2 mps 757 mmHg 23%
    10:00 +34°C° 0 mm 2 mps 757 mmHg 22%
    11:00 +34°C° 0 mm 1 mps 756 mmHg 20%
    12:00 +35°C° 0 mm 1 mps 756 mmHg 19%
    13:00 +35°C° 0 mm 1 mps 755 mmHg 19%
    14:00 +37°C° 0 mm 2 mps 755 mmHg 19%
    15:00 +37°C° 0 mm 2 mps 754 mmHg 19%
    16:00 +36°C° 0.1 mm 2 mps 755 mmHg 24%
    17:00 +34°C° 0.1 mm 2 mps 755 mmHg 29%
    18:00 +32°C° 0.1 mm 2 mps 755 mmHg 35%
    19:00 +30°C° 0.4 mm 2 mps 755 mmHg 39%
    20:00 +27°C° 0.4 mm 2 mps 756 mmHg 43%
    21:00 +25°C° 0.4 mm 2 mps 757 mmHg 47%
    22:00 +24°C° 1 mm 2 mps 757 mmHg 53%
    23:00 +24°C° 1 mm 3 mps 756 mmHg 59%

    1 June, Thursday

    Time Temperature Precipitation Wind Pressure Humidity
    00:00 +22°C° 1 mm 3 mps 756 mmHg 65%
    01:00 +22°C° 0.7 mm 3 mps 756 mmHg 66%
    02:00 +21°C° 0.7 mm 3 mps 756 mmHg 66%
    03:00 +21°C° 0.7 mm 3 mps 756 mmHg 67%
    04:00 +21°C° 0.3 mm 3 mps 756 mmHg 66%
    05:00 +22°C° 0.3 mm 4 mps 756 mmHg 65%
    06:00 +22°C° 0.3 mm 4 mps 756 mmHg 64%
    07:00 +25°C° 0 mm 4 mps 756 mmHg 56%
    08:00 +27°C° 0 mm 5 mps 756 mmHg 48%
    09:00 +28°C° 0 mm 5 mps 756 mmHg 40%
    10:00 +30°C° 0 mm 5 mps 756 mmHg 36%
    11:00 +32°C° 0 mm 5 mps 755 mmHg 33%
    12:00 +33°C° 0 mm 4 mps 755 mmHg 29%
    13:00 +33°C° 0 mm 4 mps 755 mmHg 29%
    14:00 +33°C° 0 mm 4 mps 754 mmHg 28%
    15:00 +34°C° 0 mm 3 mps 754 mmHg 27%
    16:00 +33°C° 0 mm 3 mps 754 mmHg 30%
    17:00 +31°C° 0 mm 2 mps 755 mmHg 33%
    18:00 +30°C° 0 mm 2 mps 755 mmHg 36%
    19:00 +28°C° 0.2 mm 2 mps 756 mmHg 41%
    20:00 +25°C° 0.2 mm 2 mps 756 mmHg 46%
    21:00 +23°C° 0.2 mm 2 mps 757 mmHg 50%
    22:00 +23°C° 0 mm 2 mps 757 mmHg 54%
    23:00 +21°C° 0 mm 2 mps 757 mmHg 59%

    2 June, Friday

    Time Temperature Precipitation Wind Pressure Humidity
    00:00 +21°C° 0 mm 1 mps 758 mmHg 63%
    01:00 +21°C° 0 mm 1 mps 758 mmHg 66%
    02:00 +20°C° 0 mm 1 mps 758 mmHg 70%
    03:00 +19°C° 0 mm 1 mps 758 mmHg 73%
    04:00 +20°C° 0 mm 1 mps 758 mmHg 69%
    05:00 +21°C° 0 mm 1 mps 758 mmHg 66%
    06:00 +22°C° 0 mm 1 mps 759 mmHg 62%
    07:00 +24°C° 0 mm 2 mps 759 mmHg 56%
    08:00 +25°C° 0 mm 2 mps 759 mmHg 50%
    09:00 +27°C° 0 mm 2 mps 759 mmHg 44%
    10:00 +28°C° 0 mm 2 mps 758 mmHg 40%
    11:00 +29°C° 0 mm 2 mps 758 mmHg 37%
    12:00 +30°C° 0 mm 2 mps 758 mmHg 33%
    13:00 +31°C° 0 mm 1 mps 757 mmHg 32%
    14:00 +32°C° 0 mm 1 mps 757 mmHg 31%
    15:00 +32°C° 0 mm 1 mps 757 mmHg 29%
    16:00 +32°C° 0 mm 1 mps 757 mmHg 32%
    17:00 +31°C° 0 mm 1 mps 757 mmHg 35%
    18:00 +31°C° 0 mm 2 mps 758 mmHg 38%
    19:00 +29°C° 0 mm 2 mps 758 mmHg 41%
    20:00 +27°C° 0 mm 3 mps 759 mmHg 44%
    21:00 +25°C° 0 mm 3 mps 760 mmHg 46%
    22:00 +24°C° 0 mm 3 mps 760 mmHg 50%
    23:00 +23°C° 0 mm 2 mps 760 mmHg 54%

    3 June, Saturday

    Time Temperature Precipitation Wind Pressure Humidity
    00:00 +21°C° 0 mm 2 mps 760 mmHg 57%
    01:00 +21°C° 0 mm 1 mps 760 mmHg 60%
    02:00 +21°C° 0 mm 1 mps 760 mmHg 62%
    03:00 +18°C° 0 mm 0 mps 760 mmHg 64%
    04:00 +21°C° 0 mm 1 mps 760 mmHg 61%
    05:00 +23°C° 0 mm 1 mps 761 mmHg 57%
    06:00 +24°C° 0 mm 1 mps 761 mmHg 53%
    07:00 +25°C° 0 mm 1 mps 761 mmHg 50%
    08:00 +26°C° 0 mm 1 mps 761 mmHg 47%
    09:00 +27°C° 0 mm 1 mps 761 mmHg 44%
    10:00 +29°C° 0 mm 1 mps 761 mmHg 41%
    11:00 +30°C° 0 mm 1 mps 760 mmHg 38%
    12:00 +31°C° 0 mm 2 mps 760 mmHg 35%
    13:00 +32°C° 0 mm 2 mps 760 mmHg 34%
    14:00 +32°C° 0 mm 2 mps 759 mmHg 33%
    15:00 +33°C° 0 mm 3 mps 759 mmHg 32%
    16:00 +33°C° 0 mm 3 mps 759 mmHg 34%
    17:00 +32°C° 0 mm 4 mps 760 mmHg 37%
    18:00 +30°C° 0 mm 4 mps 760 mmHg 39%
    19:00 +29°C° 0.1 mm 4 mps 760 mmHg 44%
    20:00 +27°C° 0.1 mm 4 mps 761 mmHg 49%
    21:00 +25°C° 0.1 mm 4 mps 761 mmHg 54%
    22:00 +23°C° 0.1 mm 4 mps 762 mmHg 59%
    23:00 +22°C° 0.1 mm 3 mps 762 mmHg 64%
    Show more